RS33S (SXC3-215 VIZARD) (53386 NORAD) Tracking and Keplerian Element Data

This shows tracking and keplerian element data for the satellite.

Feedback or suggestion? Click here.




ElementValue
Catalog53386
NameRS33S (SXC3-215 VIZARD)
Epoch Orbit1585
Epoch Day325.07346859
Epoch Year2022
RAAN226.0559
Inclination97.4269
Eccentricity0.0007849
Argument of Perigee80.3604
Mean Anonmoly31.4642
Mean Motion15.28652341
Decay Rate0.00014066
L11 53386U 22096S 22325.07346859 .00014066 00000+0 50666-3 0 9992
L22 53386 97.4269 226.0559 0007849 80.3604 31.4642 15.28652341 15858



Live tracking and technical data element details for RS33S (SXC3-215 VIZARD) (NORAD 53386). RS33S (SXC3-215 VIZARD) can be tracked NOW for your location showing map with azimuth and elevation plus other details from your city location.







IsCatalogInMostPopularTable: catalog: 53386, numindb: 6
Update: records affected: 1



GetName: 53386 RS33S (SXC3-215 VIZARD)

Hit Count: updated at: Tue, 29 Nov 2022 01:42:33 GMT